Location: Unspecified
(17.6330°N, 0.0000°E)
Time: 22:56:12
(UTC+00:00)

A-11 Canister half - Pass Details

Date: 17 June 2019
Orbit: 1514 x 1686 km, 47.2° (Epoch: 12 October)

Event Time Altitude Azimuth Distance (km) Brightness Sun altitude
Rises 19:43:46 0° 315° (NW) 4,679 13.2 -15.0°
Reaches altitude 10° 19:46:49 10° 314° (NW) 3,683 12.3 -15.6°
Maximum altitude 19:56:03 79° 229° (SW) 1,537 9.0 -17.5°
Enters shadow 20:02:26 23° 145° (SE) 2,786 9.8 -18.8°
Drops below altitude 10° 20:05:17 10° 143° (SE) 3,681 - -19.3°
Sets 20:08:20 0° 142° (SE) 4,676 - -20.0°
